User: anonymous   Login
Location: Newark
(48.5156°N, 1.8989°W)
Time: 13:15:10
(UTC+00:00)
Language:

Transit 4A - Orbit

View from above orbital plane
View from above orbital plane
View from above satellite
View from above satellite

Ground track
Ground track

The orbit data is extracted from the following two-line orbital elements,

1   116U 61015A   19321.69205210 -.00000078 +00000-0 -85079-6 0  9994
2   116 066.8113 008.3216 0073689 162.9996 197.3578 13.91761795962219
Epoch (UTC): 17 November 2019 16:36:33
Eccentricity: 0.0073689
inclination: 66.8113°
perigee height: 868 km
apogee height: 976 km
right ascension of ascending node: 8.3216°
argument of perigee: 162.9996°
revolutions per day: 13.91761795
mean anomaly at epoch: 197.3578°
orbit number at epoch: 96221

The dashed part of the orbit path shows where the satellite is in the earth's shadow,  

DLR